When you browse on this site, cookies collect data to enhance your experience and personalize the content and advertising you see.
Visit our Privacy Policy to learn more. By continuing to use the site, you agree to this use of cookies and data.
  • In Hungary
  • List of Countries
  • For 7 days
  • Water Temperature
  • Satellite Maps
  • Weather Map
  • News
  • Weather Widgets
  • user-avatar
    Login

    Hourly Weather Tuembetovo

    Today, 22 January, Tuesday

    Time Temperature Precipitation Wind Pressure Humidity
    00:00 -18°C° 0 mm 3 mps 747 mmHg 95%
    01:00 -19°C° 0 mm 4 mps 746 mmHg 93%
    02:00 -19°C° 0.1 mm 5 mps 745 mmHg 92%
    03:00 -18°C° 0.1 mm 5 mps 745 mmHg 91%
    04:00 -17°C° 0 mm 7 mps 744 mmHg 88%
    05:00 -15°C° 0.5 mm 7 mps 743 mmHg 90%
    06:00 -14°C° 0.5 mm 7 mps 742 mmHg 92%
    07:00 -14°C° 0.5 mm 7 mps 742 mmHg 94%
    08:00 -13°C° 0.6 mm 7 mps 741 mmHg 94%
    09:00 -12°C° 0.6 mm 7 mps 741 mmHg 94%
    10:00 -11°C° 0 mm 7 mps 740 mmHg 95%
    11:00 -9°C° 0.7 mm 7 mps 740 mmHg 95%
    12:00 -8°C° 0.7 mm 7 mps 740 mmHg 95%
    13:00 -7°C° 0.7 mm 7 mps 740 mmHg 95%
    14:00 -5°C° 0.8 mm 6 mps 740 mmHg 95%
    15:00 -5°C° 0.8 mm 6 mps 740 mmHg 95%
    16:00 -5°C° 0.8 mm 5 mps 740 mmHg 95%
    17:00 -8°C° 0.1 mm 5 mps 741 mmHg 95%
    18:00 -10°C° 0.1 mm 4 mps 741 mmHg 95%
    19:00 -13°C° 0.1 mm 3 mps 741 mmHg 96%
    20:00 -14°C° 0 mm 3 mps 742 mmHg 96%
    21:00 -14°C° 0 mm 2 mps 743 mmHg 96%
    22:00 -14°C° 0 mm 2 mps 743 mmHg 96%
    23:00 -13°C° 0 mm 1 mps 744 mmHg 97%

    Tomorrow, 23 January, Wednesday

    Time Temperature Precipitation Wind Pressure Humidity
    00:00 -14°C° 0 mm 1 mps 744 mmHg 97%
    01:00 -15°C° 0 mm 1 mps 745 mmHg 97%
    02:00 -16°C° 0 mm 1 mps 745 mmHg 98%
    03:00 -16°C° 0 mm 1 mps 746 mmHg 98%
    04:00 -17°C° 0 mm 1 mps 746 mmHg 99%
    05:00 -18°C° 0 mm 0 mps 746 mmHg 99%
    06:00 -18°C° 0 mm 0 mps 747 mmHg 99%
    07:00 -19°C° 0 mm 0 mps 747 mmHg 99%
    08:00 -18°C° 0 mm 0 mps 747 mmHg 99%
    09:00 -18°C° 0 mm 0 mps 748 mmHg 98%
    10:00 -17°C° 0 mm 0 mps 748 mmHg 97%
    11:00 -17°C° 0 mm 1 mps 748 mmHg 95%
    12:00 -16°C° 0 mm 1 mps 748 mmHg 94%
    13:00 -15°C° 0 mm 1 mps 749 mmHg 93%
    14:00 -16°C° 0 mm 1 mps 749 mmHg 94%
    15:00 -17°C° 0 mm 1 mps 749 mmHg 96%
    16:00 -18°C° 0 mm 1 mps 749 mmHg 97%
    17:00 -19°C° 0 mm 1 mps 750 mmHg 98%
    18:00 -21°C° 0 mm 1 mps 750 mmHg 98%
    19:00 -22°C° 0 mm 1 mps 750 mmHg 99%
    20:00 -22°C° 0 mm 1 mps 751 mmHg 99%
    21:00 -23°C° 0 mm 1 mps 751 mmHg 99%
    22:00 -23°C° 0 mm 1 mps 752 mmHg 99%
    23:00 -24°C° 0 mm 1 mps 752 mmHg 99%

    Day after tomorrow, 24 January, Thursday

    Time Temperature Precipitation Wind Pressure Humidity
    00:00 -24°C° 0 mm 1 mps 752 mmHg 99%
    01:00 -24°C° 0 mm 1 mps 753 mmHg 99%
    02:00 -24°C° 0 mm 1 mps 753 mmHg 99%
    03:00 -24°C° 0 mm 1 mps 754 mmHg 99%
    04:00 -25°C° 0 mm 1 mps 754 mmHg 99%
    05:00 -25°C° 0 mm 0 mps 754 mmHg 99%
    06:00 -25°C° 0 mm 0 mps 755 mmHg 99%
    07:00 -25°C° 0 mm 0 mps 755 mmHg 99%
    08:00 -24°C° 0 mm 0 mps 756 mmHg 98%
    09:00 -23°C° 0 mm 0 mps 756 mmHg 96%
    10:00 -21°C° 0 mm 0 mps 757 mmHg 95%
    11:00 -20°C° 0 mm 0 mps 757 mmHg 94%
    12:00 -19°C° 0 mm 0 mps 756 mmHg 92%
    13:00 -17°C° 0 mm 1 mps 756 mmHg 91%
    14:00 -18°C° 0 mm 1 mps 756 mmHg 92%
    15:00 -19°C° 0 mm 1 mps 756 mmHg 93%
    16:00 -20°C° 0 mm 1 mps 756 mmHg 94%
    17:00 -19°C° 0 mm 1 mps 756 mmHg 93%
    18:00 -19°C° 0 mm 1 mps 756 mmHg 91%
    19:00 -19°C° 0 mm 1 mps 756 mmHg 90%
    20:00 -18°C° 0 mm 1 mps 756 mmHg 88%
    21:00 -19°C° 0 mm 2 mps 756 mmHg 87%
    22:00 -18°C° 0 mm 2 mps 755 mmHg 86%
    23:00 -17°C° 0 mm 2 mps 755 mmHg 85%

    25 January, Friday

    Time Temperature Precipitation Wind Pressure Humidity
    00:00 -17°C° 0 mm 3 mps 755 mmHg 83%
    01:00 -17°C° 0 mm 3 mps 754 mmHg 82%
    02:00 -17°C° 0.1 mm 4 mps 754 mmHg 84%
    03:00 -18°C° 0.1 mm 5 mps 753 mmHg 86%
    04:00 -18°C° 0.1 mm 6 mps 753 mmHg 88%
    05:00 -18°C° 0.4 mm 6 mps 752 mmHg 89%
    06:00 -17°C° 0.4 mm 6 mps 751 mmHg 90%
    07:00 -18°C° 0.4 mm 7 mps 751 mmHg 91%
    08:00 -18°C° 0.5 mm 7 mps 751 mmHg 92%
    09:00 -18°C° 0.5 mm 7 mps 750 mmHg 93%
    10:00 -18°C° 0.5 mm 7 mps 750 mmHg 94%
    11:00 -16°C° 0.3 mm 6 mps 750 mmHg 94%
    12:00 -16°C° 0.3 mm 6 mps 749 mmHg 94%
    13:00 -16°C° 0.3 mm 6 mps 749 mmHg 94%
    14:00 -15°C° 0.2 mm 5 mps 749 mmHg 94%
    15:00 -15°C° 0.2 mm 5 mps 749 mmHg 95%
    16:00 -15°C° 0.2 mm 4 mps 748 mmHg 95%
    17:00 -15°C° 0.2 mm 4 mps 749 mmHg 95%
    18:00 -14°C° 0.2 mm 3 mps 749 mmHg 96%
    19:00 -13°C° 0.2 mm 2 mps 749 mmHg 96%
    20:00 -13°C° 0.1 mm 2 mps 749 mmHg 97%
    21:00 -13°C° 0.1 mm 2 mps 749 mmHg 97%
    22:00 -11°C° 0.1 mm 1 mps 749 mmHg 97%
    23:00 -11°C° 0.1 mm 1 mps 749 mmHg 97%

    26 January, Saturday

    Time Temperature Precipitation Wind Pressure Humidity
    00:00 -11°C° 0.1 mm 1 mps 749 mmHg 97%
    01:00 -11°C° 0.1 mm 0 mps 749 mmHg 97%
    02:00 -11°C° 0 mm 0 mps 749 mmHg 96%
    03:00 -12°C° 0 mm 1 mps 749 mmHg 96%
    04:00 -12°C° 0 mm 1 mps 749 mmHg 95%
    05:00 -13°C° 0 mm 1 mps 749 mmHg 95%
    06:00 -16°C° 0 mm 2 mps 749 mmHg 95%
    07:00 -17°C° 0 mm 2 mps 750 mmHg 95%
    08:00 -17°C° 0 mm 2 mps 750 mmHg 94%
    09:00 -17°C° 0 mm 2 mps 750 mmHg 93%
    10:00 -17°C° 0 mm 2 mps 750 mmHg 92%
    11:00 -16°C° 0 mm 2 mps 750 mmHg 90%
    12:00 -15°C° 0 mm 2 mps 750 mmHg 87%
    13:00 -15°C° 0 mm 3 mps 750 mmHg 85%
    14:00 -16°C° 0 mm 3 mps 750 mmHg 85%
    15:00 -16°C° 0 mm 3 mps 750 mmHg 85%
    16:00 -17°C° 0 mm 3 mps 750 mmHg 86%
    17:00 -18°C° 0 mm 3 mps 750 mmHg 86%
    18:00 -19°C° 0 mm 3 mps 750 mmHg 86%
    19:00 -21°C° 0 mm 3 mps 750 mmHg 86%
    20:00 -21°C° 0 mm 3 mps 750 mmHg 84%
    21:00 -19°C° 0 mm 3 mps 750 mmHg 82%
    22:00 -19°C° 0 mm 3 mps 750 mmHg 80%
    23:00 -19°C° 0 mm 3 mps 750 mmHg 79%

    27 January, Sunday

    Time Temperature Precipitation Wind Pressure Humidity
    00:00 -19°C° 0 mm 3 mps 750 mmHg 77%
    01:00 -19°C° 0 mm 3 mps 750 mmHg 75%
    02:00 -20°C° 0 mm 4 mps 750 mmHg 75%
    03:00 -19°C° 0 mm 4 mps 749 mmHg 74%
    04:00 -20°C° 0 mm 5 mps 749 mmHg 74%
    05:00 -19°C° 0 mm 5 mps 749 mmHg 75%
    06:00 -20°C° 0 mm 6 mps 749 mmHg 77%
    07:00 -20°C° 0 mm 7 mps 749 mmHg 79%
    08:00 -19°C° 0.1 mm 7 mps 748 mmHg 81%
    09:00 -19°C° 0.1 mm 8 mps 748 mmHg 83%
    10:00 -19°C° 0.1 mm 8 mps 748 mmHg 85%
    11:00 -20°C° 0 mm 9 mps 748 mmHg 85%
    12:00 -19°C° 0 mm 9 mps 748 mmHg 85%
    13:00 -19°C° 0 mm 9 mps 747 mmHg 85%
    14:00 -19°C° 0.1 mm 9 mps 747 mmHg 85%
    15:00 -19°C° 0.1 mm 9 mps 747 mmHg 85%
    16:00 -20°C° 0.1 mm 9 mps 746 mmHg 85%
    17:00 -19°C° 0.1 mm 9 mps 746 mmHg 85%
    18:00 -18°C° 0.1 mm 8 mps 746 mmHg 85%
    19:00 -18°C° 0.1 mm 8 mps 746 mmHg 86%
    20:00 -18°C° 0.1 mm 8 mps 746 mmHg 85%
    21:00 -19°C° 0.1 mm 8 mps 746 mmHg 85%
    22:00 -19°C° 0.1 mm 8 mps 746 mmHg 85%
    23:00 -18°C° 0.1 mm 8 mps 746 mmHg 85%
    Show more